This is the latest recevied weather packets stored in our database for station/object KB1FFS. If no packets are shown the sender has not sent any weather packets the latest 1 day(s).
| Time | Temp. | Humidity | Pressure | Rain* | Wind** | Luminosity | Snow |
|---|---|---|---|---|---|---|---|
| 1778037330 | 18.89° C | 70% | 1010.2 hPa | 0 mm | 0.45 m/s, 111° | 0 W/m² | - |
| 1778037027 | 19.44° C | 70% | 1010 hPa | 0 mm | 1.79 m/s, 141° | 0 W/m² | - |
| 1778036725 | 19.44° C | 70% | 1009.9 hPa | 0 mm | 0 m/s | 0 W/m² | - |
| 1778036422 | 19.44° C | 69% | 1009.9 hPa | 0 mm | 1.34 m/s, 140° | 0 W/m² | - |
| 1778036119 | 20° C | 69% | 1009.7 hPa | 0 mm | 1.79 m/s, 145° | 0 W/m² | - |
| 1778035815 | 20° C | 70% | 1009.7 hPa | 0 mm | 0.45 m/s, 158° | 0 W/m² | - |
| 1778035512 | 20° C | 69% | 1009.5 hPa | 0 mm | 1.34 m/s, 148° | 0 W/m² | - |
| 1778035208 | 20.56° C | 69% | 1009.3 hPa | 0 mm | 0.45 m/s, 116° | 0 W/m² | - |
| 1778034904 | 20.56° C | 69% | 1009.6 hPa | 0 mm | 0.45 m/s, 71° | 0 W/m² | - |
| 1778034602 | 20.56° C | 68% | 1009.1 hPa | 0 mm | 0.89 m/s, 118° | 0 W/m² | - |
| 1778034299 | 20.56° C | 68% | 1009.2 hPa | 0 mm | 0.89 m/s, 154° | 0 W/m² | - |
| 1778033997 | 20.56° C | 68% | 1009.3 hPa | 0 mm | 0.45 m/s, 75° | 0 W/m² | - |
| 1778033694 | 20.56° C | 68% | 1008.8 hPa | 0 mm | 0 m/s | 0 W/m² | - |
| 1778033391 | 20.56° C | 68% | 1008.7 hPa | 0 mm | 1.34 m/s, 135° | 0 W/m² | - |
| 1778033089 | 20.56° C | 67% | 1008.5 hPa | 0 mm | 0.45 m/s, 95° | 0 W/m² | - |
| 1778032786 | 20.56° C | 67% | 1008.8 hPa | 0 mm | 0.45 m/s, 122° | 0 W/m² | - |
| 1778032483 | 20.56° C | 67% | 1008.7 hPa | 0 mm | 0.45 m/s, 315° | 0 W/m² | - |
| 1778032180 | 20.56° C | 66% | 1008.4 hPa | 0 mm | 0.89 m/s, 78° | 0 W/m² | - |
| 1778031877 | 21.11° C | 66% | 1008.3 hPa | 0 mm | 0.89 m/s, 149° | 0 W/m² | - |
| 1778031573 | 21.11° C | 65% | 1008.1 hPa | 0 mm | 0.89 m/s, 166° | 0 W/m² | - |
| 1778031272 | 21.11° C | 65% | 1008.4 hPa | 0 mm | 0.89 m/s, 131° | 0 W/m² | - |
| 1778030967 | 21.67° C | 65% | 1008.2 hPa | 0 mm | 0.45 m/s, 149° | 0 W/m² | - |
| 1778030664 | 21.67° C | 65% | 1007.6 hPa | 0 mm | 0.89 m/s, 145° | 0 W/m² | - |
| 1778030361 | 21.67° C | 65% | 1008 hPa | 0 mm | 0.89 m/s, 120° | 0 W/m² | - |
| 1778030058 | 22.22° C | 65% | 1008.1 hPa | 0 mm | 0.89 m/s, 157° | 1 W/m² | - |
* Rain latest hour (hover to see other rain measurements)
** Current wind speed in m/s (hover to see current wind gust speed)